Showing default

ION SCV-012, 60573

Orbit data source: Space-Track

ION SCV-012, 60573 is a payload satellite owned by D-ORBIT (IT) in SSO that was launched on Fri, 16 Aug 2024 UTC via an FALCON 9 launch vehicle from the Air Force Western Test Range (AFWTR). Payload-class satellites include a variety of spacecraft equipped with specific instruments for various scientific and technological missions. These include communications satellites like Starlink; space stations such as the ISS; scientific satellites like the Hubble; Earth observation satellites from companies like Planet Labs, Umbra, and HawkEye 360; GPS; miniature CubeSats for education and research; and military/defense satellites.

Loading next visibility...
Identifier
60573, 2024-149DK
Orbit
SSO
Country
Flag of ITIT
Related business
Manufacturer
D-ORBIT
Mission
Operational Commercial Technology
Bus & Motor
ION-SC, PM200
Mass
220 kg wet, 150 kg dry
Launch date (UTC)
2024-08-16 (2 years ago)
Launch vehicle
FALCON 9
Launch site
Air Force Western Test Range (AFWTR)
Object type
Payload
Rocket body
Debris
Shape & HBR
Box, 0.2 m
Radar Cross Section
0.240 m², Large (>1 m²)

Expand to show TLE details & history
Last TLE update: 9 hours ago

TLE from 9 hours ago
0 ION SCV-012
1 60573U 24149DK  26126.13320851  .00000951  00000-0  92440-4 0  9999
2 60573  97.6784 201.0387 0002617 198.0032 162.1097 14.94847736 93634
Epoch: 2026-05-06T03:11Z
TLE epoch observation values (Epoch: 2026-05-06T03:11:49.215Z)
Latitude
0.00005°
Longitude
-70.91445°
Altitude
587.628 km
Speed
7.565 km/s
True Right ascension
13h 24m 09s
True Declination
0° 00' 00"
Sunlit
Object was in full shadow at epoch
Visualization orbit readout
Latitude
Unknown
Longitude
Unknown
Altitude
Unknown
Speed
Unknown
Apparent Right ascension
Unknown
Apparent Declination
Unknown
Sunlit
N/A
Visualization observer readout
Local Sidereal Time
20:06:01
Azimuth
Unknown
Elevation
Unknown
Doppler factor
Unknown
Orbital elements
Apogee altitude
581.678 km
Perigee altitude
578.036 km
Semi-major axis
6,957.994 km
Eccentricity
0.00026
Inclination
97.6784°
RAAN
201.0387°
Arg. of periapsis
198.0032°
True anomaly
162.11891°
Mean anomaly
162.1097°
Eccentric anomaly
162.11431°
Mean motion
3.73953 °/min
Orbital period
96.27 mins
BSTAR
0.00009244
Loading maneuver chart data...
Computing Atmospheric mass density...
Loading historical data...
Loading historical data...
Loading historical data...
Loading historical data...
Loading historical data...
Loading historical data...
Loading historical data...

Documentation

Showing up to 5 results
|